User: anonymous   Login
Location: Unspecified
(0.0000°N, 0.0000°E)
Time: 06:23:29
(UTC+00:00)
Language:

CORVUS BC2 - Orbit

View from above orbital plane
View from above orbital plane
View from above satellite
View from above satellite

Ground track
Ground track

The orbit data is extracted from the following two-line orbital elements,

1 42846U 17042X   18116.76043446  .00000220  00000-0  27175-4 0  9999
2 42846  97.6014  21.4787 0010072  16.7592 343.3958 14.91795971 42703
Epoch (UTC): 26 April 2018 18:15:01
Eccentricity: 0.0010072
inclination: 97.6014°
perigee height: 585 km
apogee height: 599 km
right ascension of ascending node: 21.4787°
argument of perigee: 16.7592°
revolutions per day: 14.91795971
mean anomaly at epoch: 343.3958°
orbit number at epoch: 4270

The dashed part of the orbit path shows where the satellite is in the earth's shadow,  

DLR